#timestamp,LO_Frequency,Hit,StdDev 
1668376815.6,286046999.5,N
1668376835.5,286046999.6,N
1668376855.3,286046996.9,N
1668376875.1,286046996.6,N
1668376895.9,286046999.6,N
1668376915.7,286046999.1,N
1668376935.5,286046999.5,N
1668376955.4,286046998.8,N
1668376975.2,286046996.8,N
1668376995.1,286046998.9,N
1668376996.0,286046998.9,N
1668377015.8,286046997.1,N
1668377035.6,286046999.1,N
1668377055.5,286046997.5,N
1668377075.3,286046996.9,N
1668377095.1,286046997.5,N
1668377115.9,286046996.6,N
1668377135.7,286046997.7,N
1668377155.6,286046997.4,N
1668377175.4,286046995.4,Y
1668377195.2,286046998.2,P
1668377215.1,286046998.4,P
1668377216.0,286046998.4,P
1668377235.8,286046999.2,Y
1668377255.7,286046999.7,P
1668377275.5,286047000.7,N
1668377295.3,286047001.1,N
1668377315.2,286046998.2,N
1668377335.0,286046999.6,N
1668377335.9,286046999.6,N
1668377355.7,286046997.3,N
1668377375.6,286046997.5,N
1668377395.4,286046997.7,N
1668377415.3,286046997.0,N
1668377435.1,286046997.8,N
1668377436.0,286046997.8,N
1668377455.8,286046997.7,N
1668377475.7,286046997.8,N
1668377495.5,286046997.2,N
1668377515.3,286046997.8,N
1668377535.2,286046997.1,N
1668377555.0,286046997.3,N
1668377555.9,286046997.3,N
1668377575.8,286046999.6,N
1668377595.6,286046999.5,N
1668377615.4,286046999.3,N
1668377635.3,286046999.3,N
1668377655.1,286046999.5,N
1668377675.8,286046997.7,N
1668377695.7,286046997.8,N
1668377715.5,286046995.0,Y
1668377735.4,286046996.6,P
1668377755.2,286046997.0,P
1668377775.0,286046999.1,N
1668377775.9,286046999.1,N
1668377795.8,286046998.5,N
1668377815.6,286046998.6,N
1668377835.5,286046998.4,N
1668377855.3,286046999.0,N
1668377875.1,286046999.5,N
1668377895.9,286046996.5,Y
1668377915.7,286047000.2,P
1668377935.5,286047001.1,N
1668377955.4,286046999.4,N
1668377975.2,286046999.1,N
1668377995.1,286046996.6,Y
1668377996.0,286046996.6,P
1668378015.8,286046998.4,N
1668378035.6,286046998.3,N
1668378055.5,286047000.8,N
1668378075.3,286047000.8,N
1668378095.1,286046998.9,N
1668378115.9,286046999.1,N
1668378135.7,286046999.0,N
1668378155.6,286046998.5,N
1668378175.4,286046998.3,N
1668378195.2,286047001.1,N
1668378215.1,286047001.2,N
1668378216.0,286047001.2,N
1668378235.8,286046998.7,N
1668378255.7,286046998.6,N
1668378275.5,286046999.1,N
1668378295.3,286046999.1,N
1668378315.2,286046997.4,N
1668378335.9,286046997.0,N
1668378355.7,286046999.5,N
1668378375.6,286046999.4,N
1668378395.4,286046997.4,N
1668378415.2,286046996.9,N
1668378435.1,286046996.7,N
1668378436.0,286046996.7,N
1668378455.8,286046997.4,N
1668378475.7,286046995.0,Y
1668378495.5,286046996.9,P
1668378515.3,286046999.2,N
1668378535.2,286046996.9,P
1668378555.0,286046999.5,N
1668378555.9,286046999.5,N
1668378575.8,286046999.2,N
1668378595.6,286046999.6,N
1668378615.4,286046999.2,N
1668378635.3,286046996.5,Y
1668378655.1,286046998.5,P
1668378675.9,286046998.1,P
1668378695.7,286047000.7,N
1668378715.5,286047000.7,N
1668378735.4,286047000.4,N
1668378755.2,286047000.8,N
1668378775.0,286046998.5,N
1668378775.9,286046998.5,N
1668378795.8,286046998.6,N
1668378815.6,286046998.2,N
1668378835.5,286046998.5,N
1668378855.3,286046998.5,N
1668378875.1,286046998.5,N
1668378895.9,286047000.8,N
1668378915.7,286046998.2,N
1668378935.5,286046998.7,N
1668378955.4,286046998.4,N
1668378975.2,286046996.9,Y
1668378995.1,286046999.0,P
1668378996.0,286046999.0,P
1668379015.8,286047000.8,P
1668379035.6,286047001.1,N
1668379055.5,286046998.7,N
1668379075.3,286046998.4,N
1668379095.2,286046999.3,N
1668379115.9,286046996.5,Y
1668379135.7,286046999.0,P
1668379155.6,286046997.0,P
1668379175.4,286046998.8,N
1668379195.2,286046998.4,N
1668379215.1,286047000.8,N
1668379216.0,286047000.8,N
1668379235.8,286047000.0,N
1668379255.7,286046999.9,N
1668379275.5,286047000.6,N
1668379295.3,286046999.9,N
1668379315.2,286047000.0,N
1668379335.0,286047000.4,N
1668379335.9,286047000.4,N
1668379355.8,286047002.8,N
1668379375.6,286047002.0,N
1668379395.4,286047002.0,N
1668379415.3,286047001.5,N
1668379435.1,286047002.1,N
1668379455.9,286047002.7,N
1668379475.7,286047002.8,N
1668379495.5,286046999.8,N
1668379515.4,286047001.4,N
1668379535.2,286047001.7,N
1668379555.0,286047002.8,N
1668379555.9,286047002.8,N
1668379575.8,286047000.3,N
1668379595.6,286047000.5,N
1668379615.5,286046999.8,N
1668379635.3,286047001.7,N
1668379655.1,286047003.6,N
1668379675.9,286047003.9,N
1668379695.7,286047003.5,N
1668379715.5,286047003.4,N
1668379735.4,286047003.0,N
1668379755.2,286047005.9,Y
1668379775.1,286047004.0,P
1668379776.0,286047004.0,P
1668379795.8,286047003.1,N
1668379815.6,286047001.3,N
1668379835.5,286047003.9,Y
1668379855.3,286047000.3,P
1668379875.2,286047000.7,N
1668379895.9,286047002.3,N
1668379915.7,286047002.7,N
1668379935.6,286046999.7,N
1668379955.4,286046999.8,N
1668379975.2,286046999.7,N
1668379995.1,286047000.1,N
1668379996.0,286047000.1,N
1668380015.8,286047001.5,N
1668380035.7,286047001.6,N
1668380055.5,286047002.6,N
1668380075.3,286047002.4,N
1668380095.2,286047002.0,N
1668380115.9,286047003.8,Y
1668380135.7,286047001.5,P
1668380155.6,286047003.9,P
1668380175.4,286047002.7,N
1668380195.3,286047002.6,N
1668380215.1,286047001.4,N
1668380216.0,286047001.4,N
1668380235.8,286047002.2,N
1668380255.7,286046999.7,N
1668380275.5,286047001.6,N
1668380295.4,286047002.3,N
1668380315.2,286047002.8,N
1668380335.0,286047002.0,N
1668380335.9,286047002.0,N
1668380355.8,286047004.3,Y
1668380375.6,286047002.2,P
1668380395.5,286047000.3,N
